TimeEET,TemperatureF,Dew PointF,Humidity,Sea Level PressureIn,VisibilityMPH,Wind Direction,Wind SpeedMPH,Gust SpeedMPH,PrecipitationIn,Events,Conditions,WindDirDegrees,DateUTC
12:00 AM,71.6,69.8,94,29.95,-9999.0,East,2.3,-,N/A,,Clear,90,2012-11-01 22:00:00
1:00 AM,69.8,68.0,94,29.95,-9999.0,East,3.5,-,N/A,,Clear,90,2012-11-01 23:00:00
2:00 AM,68,67,95,29.96,6,Calm,Calm,,,,,,2012-11-02 00:00:00
2:00 AM,68.0,66.2,94,29.95,-9999.0,East,3.5,-,N/A,,Clear,90,2012-11-02 00:00:00
3:00 AM,66.2,64.4,94,29.95,-9999.0,Calm,Calm,-,N/A,,Clear,0,2012-11-02 01:00:00
4:00 AM,66.2,64.4,94,29.95,-9999.0,Calm,Calm,-,N/A,,Clear,0,2012-11-02 02:00:00
5:00 AM,66.2,55.4,68,29.95,3.7,Calm,Calm,-,N/A,,Unknown,0,2012-11-02 03:00:00
6:00 AM,66.2,64.4,94,29.95,1.9,Calm,Calm,-,N/A,,Mist,0,2012-11-02 04:00:00
7:00 AM,68.0,66.2,94,29.95,1.9,NE,2.3,-,N/A,,Mist,50,2012-11-02 05:00:00
8:00 AM,72,70,93,29.95,2,Calm,Calm,,,,Mist,,2012-11-02 06:00:00
8:00 AM,71.6,69.8,94,29.95,1.9,Calm,Calm,-,N/A,,Mist,0,2012-11-02 06:00:00
9:00 AM,75.2,71.6,89,29.95,1.9,East,3.5,-,N/A,,Mist,100,2012-11-02 07:00:00
10:00 AM,78.8,73.4,83,29.95,1.9,NE,2.3,-,N/A,,Mist,40,2012-11-02 08:00:00
11:00 AM,78.8,73.4,83,29.95,3.7,Calm,Calm,-,N/A,,Unknown,0,2012-11-02 09:00:00
12:00 PM,84.2,73.4,70,29.92,-9999.0,NE,9.2,-,N/A,,Clear,50,2012-11-02 10:00:00
1:00 PM,82.4,71.6,70,29.92,-9999.0,NE,10.4,-,N/A,,Clear,40,2012-11-02 11:00:00
2:00 PM,84,72,59,29.92,6,NE,9.2,,,,,50,2012-11-02 12:00:00
2:00 PM,84.2,71.6,66,29.92,-9999.0,NE,9.2,-,N/A,,Clear,50,2012-11-02 12:00:00
3:00 PM,82.4,66.2,58,29.89,6.2,NE,6.9,-,N/A,,Scattered Clouds,50,2012-11-02 13:00:00
4:00 PM,82.4,68.0,62,29.89,6.2,NE,9.2,-,N/A,,Scattered Clouds,50,2012-11-02 14:00:00
5:00 PM,78.8,68.0,69,29.89,6.2,ENE,5.8,-,N/A,,Scattered Clouds,60,2012-11-02 15:00:00
6:00 PM,77.0,68.0,74,29.89,6.2,East,5.8,-,N/A,,Scattered Clouds,80,2012-11-02 16:00:00
7:00 PM,75.2,68.0,78,29.89,6.2,East,5.8,-,N/A,,Scattered Clouds,100,2012-11-02 17:00:00
8:00 PM,74,66,68,29.92,6,East,2.3,,,,Partly Cloudy,90,2012-11-02 18:00:00
8:00 PM,73.4,66.2,78,29.92,6.2,East,2.3,-,N/A,,Scattered Clouds,90,2012-11-02 18:00:00
9:00 PM,73.4,66.2,78,29.92,6.2,East,2.3,-,N/A,,Scattered Clouds,90,2012-11-02 19:00:00
10:00 PM,71.6,68.0,88,29.92,-9999.0,Calm,Calm,-,N/A,,Clear,0,2012-11-02 20:00:00
11:00 PM,71.6,66.2,83,29.92,-9999.0,Calm,Calm,-,N/A,,Clear,0,2012-11-02 21:00:00